Change the Weather History Date:

Thursday, October 31, 2013

  Actual Average Record
Temperature  
Mean Temperature 65 °F 63 °F  
Max Temperature 75 °F 73 °F 89 °F (1977)
Min Temperature 54 °F 52 °F 29 °F (1993)
Degree Days  
Heating Degree Days 0 5  
Month to date heating degree days 44 67  
Since 1 July heating degree days 44 72  
Cooling Degree Days 0 2  
Month to date cooling degree days 152 146  
Year to date cooling degree days 2912 2723  
Growing Degree Days 14 (Base 50)    
Moisture  
Dew Point 54 °F    
Average Humidity 60    
Maximum Humidity 93    
Minimum Humidity 27    
Precipitation  
Precipitation 0.01 in 0.14 in 3.63 in (1981)
Month to date precipitation 3.13 4.22  
Year to date precipitation 24.52 30.88  
Snow  
Snow 0.00 in 0.00 in 0.00 in ()
Month to date snowfall 0.0 0.0  
Since 1 July snowfall 0.0 0.0  
Since 1 September snowfall 0.0 0.0  
Snow Depth 0.00 in    
Sea Level Pressure  
Sea Level Pressure 29.75 in    
Wind  
Wind Speed 13 mph (SW)    
Max Wind Speed 31 mph    
Max Gust Speed 37 mph    
Visibility 9 miles    
Events Rain    
T = Trace of Precipitation, MM = Missing Value Source: NWS Daily Summary

Daily Weather History Graph

Daily Weather History Graph

Search for Another Location

Airport or City:

Trip Planner

Search our weather history database for the weather conditions in past years. The results will help you decide how hot, cold, wet, or windy it might be!

Date:

Astronomy

Oct. 31, 2013 Rise Set
Actual Time 7:45 AM CDT 6:37 PM CDT
Civil Twilight 7:19 AM CDT 7:03 PM CDT
Nautical Twilight 6:50 AM CDT 7:32 PM CDT
Astronomical Twilight 6:21 AM CDT 8:00 PM CDT
Moon 4:45 AM CDT (10/31) 4:48 PM CDT (10/31)
Length of Visible Light 11h 43m
Length of Day
10h 52m
Waning Crescent, 10% of the Moon is Illuminated
Oct 31
Waning Crescent
Nov 3
New
Nov 9
First Quarter
Nov 17
Full
Nov 25
Last Quarter

Hourly Weather History & Observations

Time (CDT) Temp. Dew Point Humidity Pressure Visibility Wind Dir Wind Speed Gust Speed Precip Events Conditions
12:53 AM 68.0 °F 66.0 °F 93% 29.75 in 4.0 mi SSE 11.5 mph - N/A   Overcast
1:53 AM 68.0 °F 66.0 °F 93% 29.71 in 6.0 mi SSE 6.9 mph - N/A   Overcast
2:21 AM 69.1 °F 66.0 °F 90% 29.73 in 6.0 mi SSE 5.8 mph - N/A   Overcast
2:53 AM 68.0 °F 66.0 °F 93% 29.72 in 7.0 mi SSW 5.8 mph - N/A   Overcast
3:18 AM 68.0 °F 66.0 °F 93% 29.72 in 10.0 mi South 5.8 mph - 0.00 in   Scattered Clouds
3:28 AM 69.1 °F 66.0 °F 90% 29.72 in 10.0 mi SSE 8.1 mph - 0.00 in   Overcast
3:53 AM 69.1 °F 66.9 °F 93% 29.68 in 8.0 mi South 8.1 mph - 0.00 in   Overcast
4:53 AM 69.1 °F 66.9 °F 93% 29.70 in 10.0 mi WNW 5.8 mph - N/A   Overcast
5:53 AM 71.1 °F 69.1 °F 93% 29.69 in 10.0 mi SSW 9.2 mph - 0.01 in Rain Light Rain
6:17 AM 71.1 °F 69.1 °F 93% 29.69 in 10.0 mi South 10.4 mph - 0.00 in   Overcast
6:53 AM 71.1 °F 69.1 °F 93% 29.68 in 10.0 mi SW 8.1 mph - 0.00 in   Mostly Cloudy
7:53 AM 71.1 °F 68.0 °F 90% 29.68 in 10.0 mi WSW 15.0 mph - N/A   Mostly Cloudy
8:53 AM 73.0 °F 63.0 °F 71% 29.72 in 10.0 mi West 16.1 mph - N/A   Scattered Clouds
9:53 AM 73.0 °F 51.1 °F 46% 29.75 in 10.0 mi West 19.6 mph 25.3 mph N/A   Partly Cloudy
10:53 AM 73.0 °F 41.0 °F 31% 29.74 in 10.0 mi West 25.3 mph 31.1 mph N/A   Partly Cloudy
11:53 AM 73.0 °F 37.9 °F 28% 29.75 in 10.0 mi WNW 19.6 mph 32.2 mph N/A   Scattered Clouds
12:53 PM 73.0 °F 37.9 °F 28% 29.76 in 10.0 mi West 24.2 mph 32.2 mph N/A   Mostly Cloudy
1:53 PM 73.9 °F 39.9 °F 29% 29.75 in 10.0 mi West 28.8 mph 35.7 mph N/A   Scattered Clouds
2:53 PM 73.0 °F 44.1 °F 35% 29.76 in 10.0 mi WNW 20.7 mph 31.1 mph N/A   Partly Cloudy
3:53 PM 72.0 °F 44.1 °F 37% 29.77 in 10.0 mi NW 24.2 mph 33.4 mph N/A   Partly Cloudy
4:53 PM 71.1 °F 43.0 °F 36% 29.78 in 10.0 mi NW 18.4 mph - N/A   Partly Cloudy
5:53 PM 69.1 °F 43.0 °F 39% 29.79 in 10.0 mi NW 17.3 mph - N/A   Partly Cloudy
6:53 PM 66.0 °F 43.0 °F 43% 29.81 in 10.0 mi NW 6.9 mph - N/A   Partly Cloudy
7:53 PM 64.0 °F 44.1 °F 48% 29.83 in 10.0 mi WSW 6.9 mph - N/A   Clear
8:53 PM 63.0 °F 44.1 °F 50% 29.85 in 10.0 mi SW 6.9 mph - N/A   Partly Cloudy
9:53 PM 62.1 °F 45.0 °F 53% 29.85 in 10.0 mi WSW 3.5 mph - N/A   Clear
10:53 PM 54.0 °F 45.0 °F 72% 29.86 in 10.0 mi SSE 4.6 mph - N/A   Clear
11:53 PM 54.0 °F 46.9 °F 77% 29.86 in 10.0 mi SSW 5.8 mph - N/A   Clear